Flag for Lebanon Weather past 2 weeks in Beirut, Lebanon

Now
82 °F

Scattered clouds.


Feels Like: 87 °F
Forecast: 80 / 87 °F
Wind: 6 mph from West

Location: Beirut Airport

Current Time: Jul 28, 2015 at 9:45:59 AM

Latest Report: Jul 28, 2015 at 9:00 AM


Visibility: 4 mi

Pressure: 29.74 "Hg

Humidity: 70%

Dew point: 72 °F

Location of BeirutLocation

Historic Weather in Beirut — Graph

°F

Beirut temperature yesterday

Maximum temperature yesterday: 88 °F (at 1:00 PM)
Minimum temperature yesterday: 77 °F (at 6:00 AM)
Average temperature yesterday: 82 °F

Past Weeks' High & Low Weather Summary

 TemperatureHumidityPressure
High99 °F (Jul 24, 9:00 AM)84% (Jul 15, 12:00 AM)29.86 "Hg (Jul 15, 12:00 AM)
Low75 °F (Jul 22, 6:00 AM)22% (Jul 24, 7:00 AM)29.68 "Hg (Jul 20, 5:00 AM)
Average82 °F69%29.77 "Hg
* Reported Jul 13 8:00 AM — Jul 28 8:00 AM, Beirut, Weather by CustomWeather, © 2015

Note: Actual official high and low records may vary slightly from our data, if they occured in-between our weather recording intervals... More about our weather records

Advertising

Beirut weather history for previous 24 hours

 ConditionsComfort  
Time TempWeatherWind HumidityBarometerVisibility
8:00 AM
Tue, Jul 28
81 °FScattered clouds.3 mph70%29.71 "Hg4 mi
7:00 AM81 °FPassing clouds.3 mph66%29.71 "Hg5 mi
6:00 AM81 °FPassing clouds.5 mph66%29.71 "Hg5 mi
5:00 AM81 °FPassing clouds.3 mph70%29.68 "Hg5 mi
4:00 AM81 °FPassing clouds.3 mph70%29.71 "Hg5 mi
3:00 AM81 °FPassing clouds.2 mph70%29.71 "Hg5 mi
2:00 AM81 °FPassing clouds.3 mph70%29.71 "Hg5 mi
1:00 AM81 °FPassing clouds.3 mph70%29.71 "Hg5 mi
12:00 AM82 °FPassing clouds.3 mph66%29.74 "Hg5 mi
11:00 PM
Mon, Jul 27
81 °FPassing clouds.5 mph70%29.74 "Hg5 mi
10:00 PM82 °FPassing clouds.6 mph70%29.74 "Hg5 mi
9:00 PM82 °FPassing clouds.8 mph70%29.74 "Hg5 mi
8:00 PM82 °FScattered clouds.9 mph70%29.74 "Hg5 mi
7:00 PM82 °FScattered clouds.9 mph74%29.74 "HgN/A
6:00 PM84 °FPassing clouds.9 mph66%29.71 "HgN/A
5:00 PM86 °FPassing clouds.9 mph62%29.74 "HgN/A
4:00 PM84 °FPassing clouds.10 mph66%29.74 "HgN/A
3:00 PM86 °FPassing clouds.9 mph62%29.74 "Hg5 mi
2:00 PM84 °FPassing clouds.9 mph62%29.74 "Hg5 mi
1:00 PM88 °FPassing clouds.9 mph59%29.74 "Hg5 mi
12:00 PM84 °FPassing clouds.9 mph66%29.74 "Hg5 mi
11:00 AM84 °FPassing clouds.8 mph66%29.74 "Hg5 mi
10:00 AM82 °FPassing clouds.7 mph66%29.74 "Hg5 mi
9:00 AM82 °FPassing clouds.7 mph70%29.74 "Hg5 mi
Weather by CustomWeather, © 2015

See weather overviewHow to use our weather pages